RH
2 2 2 3 4 4 6 7 10 11 14 34 48 41 23 16 12 9 7 6 4 4 3 2 2 2 2 2 3 2 3 4 4 6 9 10 13 18 22 24 23 27 36 50
2 3 4 6 7 8 13 13 12 17 39 48 38 23 19 14 12 10 7 6 6 4 3 3 3 3 3 3 3 4 4 4 5 7 7 10 11 16 17 16 19 24 23 27
5 5 7 8 9 12 22 24 22 42 48 32 26 22 19 17 14 11 9 7 5 4 4 4 4 4 4 4 4 5 6 5 6 10 10 12 14 17 20 20 21 27 29 27
7 8 9 10 14 21 37 36 34 43 31 28 26 23 19 16 14 12 10 8 6 6 6 6 7 6 6 6 6 6 7 7 7 10 10 13 16 18 18 20 22 22 25 30
8 10 16 17 22 29 48 45 45 38 35 29 27 27 24 21 17 13 11 8 8 8 8 10 11 12 11 10 10 11 11 11 12 12 11 10 13 15 14 16 17 17 18 20
9 12 15 27 48 47 44 39 41 42 36 30 30 32 29 28 25 20 17 14 12 11 12 12 11 13 17 18 18 18 16 16 18 20 23 23 21 20 19 20 21 21 22 20
19 20 33 41 70 65 54 48 48 45 38 35 37 37 33 34 32 30 27 22 21 20 22 20 19 19 22 24 26 26 27 27 25 25 28 29 25 25 26 28 28 31 34 33
25 36 60 71 76 76 67 63 62 57 50 45 45 44 42 42 41 41 42 38 37 35 36 31 30 29 31 35 37 38 37 37 37 35 35 37 40 44 44 48 50 39 37 39
28 52 76 83 87 80 81 74 70 64 58 54 51 49 49 50 52 50 48 50 47 47 46 44 45 43 45 45 42 44 47 50 51 46 42 41 43 48 51 49 50 53 57 59
34 78 79 82 83 90 89 85 77 73 69 63 58 54 53 54 54 53 51 52 52 52 53 51 53 50 50 51 49 48 51 50 51 56 62 66 62 61 61 60 64 59 54 52
45 57 80 84 80 86 88 91 85 80 84 77 67 63 59 57 57 57 56 54 54 56 58 56 54 55 55 57 56 57 58 61 58 56 60 64 64 62 65 62 60 59 62 64
99 73 95 87 82 95 97 86 90 84 92 92 79 74 69 66 61 58 55 55 56 60 62 64 68 66 61 64 61 58 57 57 59 62 66 64 67 64 67 65 69 68 65 66
100 98 95 99 92 94 93 97 96 87 89 99 100 92 93 82 73 68 62 67 69 67 67 67 68 74 69 65 66 65 62 56 54 56 61 65 70 72 70 73 67 58 58 67
100 100 83 98 99 100 92 89 94 97 100 98 100 100 100 100 100 97 84 84 85 81 75 81 79 80 82 81 76 70 69 67 62 58 55 60 64 67 72 70 67 63 70 72
70 93 100 100 100 100 100 95 98 100 98 95 96 99 99 97 99 95 92 98 94 91 91 90 90 87 86 88 96 92 82 77 68 68 67 58 60 68 68 73 69 68 67 78
82 95 100 100 100 100 100 100 98 100 100 97 96 95 100 99 100 100 100 98 91 90 100 99 93 89 88 88 84 88 96 95 89 76 72 68 60 63 64 77 67 69 83 69
31 92 99 98 100 100 100 100 100 100 100 100 100 94 91 97 97 100 100 99 100 99 100 100 99 89 88 92 86 84 86 93 95 91 80 74 67 61 64 68 67 76 73 66
24 42 100 96 100 100 100 100 100 100 100 100 100 100 96 92 100 100 100 98 98 96 99 100 98 97 90 88 86 82 84 88 91 93 90 77 69 65 68 71 67 69 68 68
27 15 66 100 97 100 100 100 100 100 98 100 100 100 100 97 96 100 100 100 97 99 99 99 100 100 98 98 88 83 80 86 82 89 88 79 71 68 67 70 65 73 68 62
24 21 12 74 100 85 100 100 100 95 99 94 100 100 100 97 100 100 100 100 100 99 100 92 98 100 100 100 97 89 82 80 75 77 81 75 70 70 68 73 74 76 68 62
28 18 15 21 76 99 79 100 100 100 100 100 99 99 100 94 83 92 100 100 100 92 100 100 91 100 100 100 100 86 85 74 75 72 74 72 70 71 82 83 78 70 62 62
24 22 14 12 17 78 85 89 100 100 100 100 100 100 100 100 93 88 92 99 100 100 98 100 100 100 100 100 98 87 84 82 83 73 72 77 69 67 76 76 69 64 57 65
17 18 17 12 9 11 81 85 100 100 100 100 97 93 90 91 85 90 84 77 98 100 92 100 95 100 100 100 100 98 96 87 85 81 72 74 68 64 63 63 63 61 63 66
15 15 14 12 10 7 46 100 100 100 100 100 100 87 96 100 100 91 100 73 87 100 100 100 85 100 100 100 100 100 100 87 84 87 80 75 66 71 69 64 68 66 69 68
13 14 11 12 11 8 19 100 100 100 100 100 98 93 100 100 99 96 96 90 90 100 100 100 96 100 100 100 100 100 100 96 92 92 86 76 70 71 71 66 76 75 70 67
11 12 10 13 10 8 11 78 100 100 100 100 100 99 98 98 100 100 100 97 100 100 100 82 100 100 100 100 100 100 100 100 100 93 85 82 74 73 77 79 92 81 74 72
9 14 10 10 10 8 8 36 100 100 99 93 94 100 98 92 100 100 100 100 100 100 96 100 100 100 100 100 100 100 100 100 100 100 93 86 84 88 94 83 80 75 83 76
Wind_Speed
24 23 25 24 26 29 36 36 46 51 51 57 52 46 43 39 36 32 27 25 24 19 20 20 17 18 17 18 19 20 19 22 23 23 23 22 20 19 17 16 15 17 22 27
25 30 34 35 36 37 41 42 51 52 58 56 52 51 51 45 40 36 30 31 27 25 27 30 28 28 26 27 27 25 26 27 29 25 24 26 24 20 16 12 12 12 16 20
27 28 36 38 38 41 47 51 55 59 57 56 57 56 54 49 43 39 37 38 35 34 41 42 41 38 40 37 36 33 32 31 31 29 28 26 24 23 18 15 12 8 6 6
31 29 30 34 40 47 54 51 52 56 56 60 58 59 54 51 47 46 42 46 46 44 47 52 54 53 53 49 46 43 40 37 35 36 31 28 26 23 22 21 18 17 15 13
32 27 30 31 39 45 54 54 51 54 57 58 59 57 53 50 49 49 48 47 49 52 56 59 60 61 61 59 57 55 52 50 47 43 37 31 29 28 23 20 17 14 14 15
26 22 26 38 43 41 48 49 50 51 53 56 56 54 52 49 50 49 50 49 52 54 55 58 60 62 64 65 65 64 60 55 52 48 48 42 39 36 32 27 21 15 11 8
15 23 31 36 45 42 42 45 47 48 50 53 51 50 48 48 49 50 50 51 54 55 59 58 59 59 61 61 61 62 60 59 57 54 55 52 47 44 41 38 33 31 28 22
13 25 32 38 38 39 40 41 42 46 49 48 47 46 45 46 47 48 50 52 54 54 55 55 56 58 57 55 55 55 55 54 55 55 52 50 49 48 48 46 42 36 33 31
9 24 31 34 34 35 38 38 39 43 44 43 43 42 41 42 43 43 45 48 48 49 50 50 51 53 52 51 50 49 48 50 49 48 48 46 44 43 42 41 43 39 39 38
7 26 27 28 28 29 32 34 35 36 40 37 34 36 35 35 37 36 38 41 43 44 44 45 45 45 46 46 45 45 44 44 44 45 45 46 43 41 38 36 37 35 33 32
13 19 27 25 24 26 27 29 30 31 36 33 30 29 28 30 30 30 30 31 34 36 37 38 38 38 38 39 40 39 41 42 41 41 43 41 38 36 37 36 34 31 32 35
24 21 25 22 21 21 22 23 26 25 29 28 26 25 23 22 24 23 23 25 27 28 29 29 30 30 29 30 30 32 33 33 33 34 35 35 35 35 36 37 35 32 32 32
26 24 24 21 18 18 18 20 20 21 22 23 22 20 20 18 17 15 15 17 18 20 21 21 21 22 23 23 24 25 26 26 27 29 29 30 30 32 33 35 36 35 38 38
31 30 26 23 21 19 16 16 17 19 20 20 20 18 17 14 12 11 10 10 10 13 14 14 15 14 16 17 17 19 19 21 22 24 25 27 27 28 29 31 32 34 37 39
31 37 33 30 28 23 21 19 17 16 17 19 19 16 14 14 12 10 8 7 6 6 8 9 11 11 13 14 15 15 16 17 19 21 23 25 26 28 28 30 34 36 39 43
28 41 37 37 35 31 27 22 20 18 16 15 16 16 13 12 10 9 7 5 5 4 6 8 11 13 15 16 16 17 18 19 20 21 23 25 26 27 30 31 35 38 40 44
13 41 48 41 43 40 36 32 27 23 20 17 15 14 13 11 9 7 4 2 2 3 6 9 12 15 17 18 19 20 20 21 22 22 22 24 26 29 31 33 35 37 42 44
25 23 56 49 50 48 43 40 36 32 27 24 20 17 15 11 9 8 6 4 3 4 7 10 14 16 17 19 20 22 22 23 23 24 24 24 26 28 32 34 38 41 44 48
32 29 40 62 52 53 52 46 43 41 37 31 29 25 22 17 14 11 9 10 9 9 10 12 16 19 19 18 21 23 24 22 24 25 25 26 27 29 34 38 40 43 46 50
37 36 38 50 66 59 58 56 52 48 44 41 39 34 33 28 21 17 16 13 16 15 15 15 16 21 24 22 23 24 25 25 25 26 28 28 28 30 36 39 40 45 49 52
40 39 42 50 60 67 63 62 59 54 51 49 47 41 37 38 30 24 21 21 20 18 17 20 18 19 26 26 27 28 28 31 30 27 29 30 28 31 36 40 42 47 51 54
38 43 42 49 57 66 66 65 61 60 56 56 54 49 45 40 39 34 28 26 25 23 19 22 25 18 28 29 32 33 32 34 35 34 31 32 32 34 38 40 45 49 55 60
41 41 46 46 53 56 62 68 66 69 69 63 59 53 46 42 40 34 35 29 28 29 22 26 26 23 31 32 35 34 35 37 38 39 38 38 40 40 44 46 50 54 59 63
48 45 45 47 46 50 64 75 78 76 74 67 62 58 52 49 45 41 42 35 30 30 27 36 24 29 36 36 35 37 38 41 42 42 44 43 44 46 49 51 56 60 63 67
54 47 44 44 48 53 65 81 85 84 80 75 69 64 61 55 47 43 40 36 32 30 35 37 29 33 36 36 37 38 38 41 45 46 47 49 48 51 52 55 59 63 67 72
49 43 44 51 53 56 66 83 89 92 85 79 76 71 65 60 55 48 44 39 41 39 41 34 33 35 38 38 40 41 42 41 42 45 47 49 52 54 56 58 62 65 70 73
48 51 56 55 58 59 66 80 93 95 91 83 81 79 75 66 59 53 51 47 48 44 41 37 37 36 39 42 42 42 42 43 42 44 48 51 53 55 60 62 65 70 73 76
Wind_Direction
47 72 85 99 112 120 130 135 137 134 126 114 109 108 104 95 88 84 78 74 67 60 64 74 71 72 69 72 76 81 96 104 110 109 117 125 137 138 151 166 169 179 188 200
67 88 100 112 117 123 129 134 132 125 116 111 114 103 91 85 83 80 78 78 78 79 79 81 79 77 78 78 80 88 91 101 107 112 120 122 126 126 132 131 149 176 192 202
64 93 108 117 122 123 128 127 124 117 113 113 102 96 91 88 85 84 85 89 88 85 84 82 81 81 79 77 79 84 86 90 98 105 106 109 117 117 119 120 127 145 174 210
58 83 107 115 121 124 123 125 119 114 111 103 101 95 92 93 94 91 94 93 90 87 85 82 79 79 77 76 77 77 81 88 90 93 98 107 109 116 126 133 138 149 157 168
50 87 114 119 121 127 124 121 115 107 105 104 99 94 90 88 89 90 89 90 91 87 84 82 82 82 81 77 74 76 77 75 75 77 80 86 95 104 110 110 117 137 155 171
43 91 117 121 123 124 123 119 111 108 105 102 98 94 92 91 88 86 86 86 84 83 80 77 75 73 73 76 76 75 74 77 80 81 79 79 82 87 87 90 94 98 104 138
85 113 124 127 125 123 117 111 109 106 102 100 97 94 94 92 90 86 83 82 80 79 76 76 76 75 73 71 70 69 69 70 68 67 73 73 73 74 80 80 78 83 88 92
107 127 131 129 125 119 112 108 108 105 101 99 96 96 95 91 88 85 83 81 79 78 78 78 75 74 74 74 73 72 70 69 70 71 69 69 65 67 69 71 70 66 64 66
103 136 138 132 126 122 117 115 112 109 106 103 103 101 99 96 93 88 87 86 84 81 78 78 77 78 79 78 76 75 72 73 74 72 73 72 72 71 68 67 67 67 67 65
205 146 148 142 133 126 123 122 119 115 111 108 106 105 103 99 98 92 90 88 86 83 80 78 76 75 73 74 73 74 72 73 74 77 74 75 74 70 67 66 66 63 61 55
245 177 162 154 147 137 131 128 124 124 118 119 117 113 109 104 101 98 95 89 88 84 82 79 76 74 72 70 67 67 65 67 66 68 66 67 68 65 67 66 60 56 57 55
182 187 173 164 164 148 146 138 131 132 128 127 124 121 117 112 109 106 100 95 89 84 80 79 75 74 71 67 63 61 59 59 59 58 58 56 54 55 51 52 51 49 41 37
196 200 187 183 182 170 164 149 143 139 136 135 135 131 125 119 116 110 99 92 88 86 82 77 75 69 68 64 59 54 52 48 45 47 46 43 40 39 37 39 36 35 32 28
203 207 212 198 199 194 191 172 163 155 145 142 142 144 145 144 138 129 116 100 86 82 83 78 73 66 58 57 52 47 46 41 37 33 32 33 29 25 24 24 26 21 18 18
242 216 214 210 208 208 208 198 186 179 165 157 150 150 149 143 141 133 125 115 104 78 67 54 43 34 31 32 30 25 22 25 21 18 16 17 18 13 11 10 11 11 8 8
246 224 213 217 215 213 215 221 207 197 194 185 173 166 164 161 154 145 134 114 93 62 42 29 17 13 7 6 7 1 6 360 359 359 359 359 1 3 1 3 2 358 3 1
256 228 217 221 221 216 211 216 221 215 214 209 201 198 189 192 189 178 167 131 61 26 15 6 4 359 357 351 350 353 354 350 347 345 345 344 345 352 353 352 351 353 354 354
277 236 223 225 222 224 221 217 218 219 215 220 222 217 216 212 219 228 221 231 286 322 338 343 345 348 346 340 342 344 345 342 341 337 333 333 336 342 347 343 347 348 345 347
285 247 229 223 222 225 227 227 223 220 220 217 222 226 225 226 227 236 258 274 269 287 308 319 325 327 330 326 328 334 335 336 335 337 334 331 334 338 339 339 342 342 341 342
284 268 236 227 224 225 224 230 231 227 222 224 225 226 226 225 222 237 250 266 274 265 285 300 313 315 318 315 315 320 324 326 333 331 332 330 335 336 336 338 338 336 337 337
288 271 256 233 225 226 225 225 230 234 230 228 233 235 235 237 234 231 239 250 266 271 271 284 295 309 307 314 312 314 317 319 328 333 332 331 332 330 335 336 335 335 334 334
281 277 264 251 237 225 228 225 229 235 236 233 232 233 237 238 244 245 233 240 253 267 272 277 282 295 297 304 309 312 313 316 320 328 329 330 325 326 327 332 333 333 333 335
278 271 267 254 250 238 219 225 227 231 235 237 237 238 238 242 243 245 246 241 247 255 266 275 285 289 292 299 302 309 311 312 315 318 322 324 324 323 324 327 328 330 332 333
281 277 262 253 246 245 223 221 223 228 234 236 239 240 241 242 245 247 257 251 258 265 263 268 280 291 286 297 302 304 306 309 310 312 316 320 321 323 323 324 326 328 331 332
284 277 264 248 236 238 225 218 223 224 229 233 235 238 241 243 243 246 249 253 256 256 259 266 275 281 285 296 303 300 305 305 306 308 311 314 317 320 322 323 324 326 327 329
283 271 255 240 231 231 224 217 221 223 226 229 233 236 239 241 242 245 247 253 256 252 258 269 271 276 284 298 296 296 302 300 303 304 308 311 313 317 319 322 322 324 324 327
274 259 249 238 229 227 228 217 218 222 224 226 229 232 235 238 241 243 247 249 252 257 263 269 274 280 285 290 292 295 298 300 300 303 305 308 311 316 319 320 321 321 323 326